Погода в Томске

Погода в Томске : погода сейчас, прогноз погоды и архив. Всё, что Вы хотите узнать о погоде в Томске!

Хотите узнать прогноз погоды в Томске? Тогда Вам сюда: Погода в Томске

Поиск расширенной информации на нашем сайте:

Другие новости

Новости СМИ2

Главная страница сайта

Новости сайта

03.07.2017

Напоминаем, что на нашем специализированном сайте Метеоцентр.Азия вы можете получить высокодетализированные автоматические прогнозы погоды по пунктам России, СНГ и мира в авиационном формате (включающие направление и скорость ветра, видимость, явления погоды, количество и форму облачности, нижнюю и верхнюю границу облачности).


Погода в Томске - сегодня

Время (UTC), дата Ветер
(°,м/с) 
Видим.   Явления Облачность Т
(°С)
Тd
(°С)
f(%) Тe
(°С)
Pmin
(гПа)
dP
(гПа)
Po
(мм)
O2
(г/м3)
Тmin Tmax R s Состояние
почвы
18 11.10.18 150 (ЮВ) 20000 м    ясно 
+4 -1.9 65 +5  1015.7  -1.4  749  298           
21 11.10.18 140 (ЮВ) 1{11}  20000 м    4/0 средняя 
[Ac trans]
+5.9 -2.6 54 +7  1014  -1.6  748  295           
00 12.10.18 150 (ЮВ) 20000 м    4/0 средняя 
[Ac trans]
+5.3 -2.5 57 +5  1012.3  -1.7  746  295  +3.7        сухая 
03 12.10.18 140 (ЮВ) 20000 м    9/0 средняя 
[Ac trans]
+6.8 -1.4 56 +7  1010.9  -1.2  746  293           
06 12.10.18 140 (ЮВ) 20000 м    3/0 верхняя 
[Ci fib]
+13 -0.1 41 +13  1008.4  -2.1  744  286           
09 12.10.18 140 (ЮВ) 20000 м    10/0 верхняя 
[Ci]
+15.8 -0 34 +17  1006.2  -2.1  742  283           
12 12.10.18 140 (ЮВ) 20000 м    10/0 средняя, верхняя 
[Ac trans|Cs]
+14.5 -0.8 35 +15  1005.7  -0.6  742  284    +16.1       
15 12.10.18 140 (ЮВ) 1{10}  20000 м    10/0 верхняя 
[Cs]
+13.3 -0.1 40 +15  1004.9  -0.8  741  285           
18 12.10.18 170 (Ю) 20000 м    10/0 средняя 
[As op]
+13.4 +0.8 42 +15  1004.4  -0.5  741  284           
00 13.10.18 110 (В) 20000 м  {дождь}  10/10 540 м 
[Sc]
+11.2 +2.8 56 +11  1000.8  -3.5  738  285  +8.4    0.4    влажная 
03 13.10.18 140 (ЮВ) 3{10}  20000 м    10/1 1000 м средняя 
[Sc|As trans]
+14.9 -0.7 34 +15  999.4  -1.1  737  282           
06 13.10.18 140 (ЮВ) 1{10}  20000 м    10/0 средняя 
[As trans]
+16.6 +1.5 36 +18  999.2  -0.1  737  280           
09 13.10.18 тихо ()   20000 м    10/6 1000 м средняя 
[Sc|As op]
+14.8 +3 45 +15  999.4  0.1  737  281           
12 13.10.18 140 (ЮВ) 5-15{15}  20000 м  {дождь}  10/3 600 м средняя 
[Sc|As op]
+16.9 +0.8 34 +17  996  -3.2  735  279    +16.9  0.0     
00 14.10.18 тихо ()   20000 м  {дождь}  ясно 
-0.6 -1.9 91 -1  1014.5  3.4  748  302  -0.6    0.0    влажная 
03 14.10.18 тихо ()   20000 м    3/0 верхняя 
[Ci fib]
+2.7 -0.8 78 +3  1017.3  750  299  -0.6         
06 14.10.18 150 (ЮВ) 20000 м    8/8 800 м 
[Sc diur, vesp]
+5.3 -2.2 58 +6  1018.7  1.5  751  297           
09 14.10.18 120 (ЮВ) 20000 м    6/6 800 м 
[Sc diur, vesp]
+6.2 -3.7 49 +7  1018.6  -0.1  751  296           
12 14.10.18 080 (В) 20000 м  {дождь}  10/4 600 м средняя 
[Sc|Ac und]
+3.6 -0.2 76 +4  1018.9  0.2  751  299    +7.5  0.0     
18 14.10.18 140 (ЮВ) 20000 м  {ливн. осадки}  ясно 330 м 
+1.7 -1.1 82 +2  1021.6  1.1  753  302           
21 14.10.18 190 (Ю) 20000 м    10/10 300 м 
[Sc diur, vesp]
+1 -2.1 80 +2  1023.7  755  303           
00 15.10.18 130 (ЮВ) 20000 м    ясно 
-0.8 -3.2 84 1025.2  1.4  756  306  -0.8      влажная 
03 15.10.18 140 (ЮВ) 20000 м    ясно 
+0.9 -4.9 65 +2  1025.7  0.6  756  304  -1.1         
12 15.10.18 тихо ()   20000 м  {ливн. осадки}  ясно 
-0.7 -2.7 86 -1  1025.6  0.1  756  306    +4.2  0.3     
15 15.10.18 040 (СВ) 20000 м    ясно 
-1.9 -3.2 91 -1  1025.5  -0.2  756  307           
Время (UTC), дата Ветер
(°,м/с) 
Видим.   Явления Облачность Т
(°С)
Тd
(°С)
f(%) Тe
(°С)
Pmin
(гПа)
dP
(гПа)
Po
(мм)
O2
(г/м3)
Тmin Tmax R s Состояние
почвы

Для получения пояснительной информации подведите курсор к названию столбца.

ПОГОДА в Томске - архив

Всё, что Вы хотите узнать о погоде в Томске - удобно и подробно!

Выберите нужную дату (начиная с 1 января 2015* года) и нажмите кнопку "Найти".
Будут отображены архивные сводки погоды по пункту Томск, начиная с указанной даты.


Отображать данные в формате CSV (для использования в таблицах Excel)


Внимание! Наш архив погоды предназначен исключительно для личного некоммерческого использования в познавательных целях. Если Вам необходимы официальные справки о состоянии погоды (для производственных, юридических, коммерческих и т.п. целей), обращайтесь в органы Росгидромета.

*Примечание: данная дата относится к архиву по метеостанциям СССР (Россия, СНГ, Балтия).
Архив по метеостанциям Зарубежной Европы и Азии (кроме Китая) хранится 10 дней, по другим регионам земного шара (Китай, Африка, Америка, Австралия, Океания) - 1 день.

Томск - район местоположения метеостанции


Название, широта, долгота, высота метеостанции:
Томск 56.5°ш. 84.9°д. 139 м над ур. моря [Российская Федерация]

Дополнительная информация

В oтличие oт бoльшинства пoгoдных сайтoв мы публикуем пoдрoбную метеoинфoрмацию в детальнoм прoфессиoнальнoм фoрмате.

Характеристики температуры и влажнoсти вoздуха измеряются на высoте 2 м в тени вдали oт зданий и деревьев.
Скoрoсть ветра измеряется на высoте 10 м (на урoвне рoста челoвека скoрoсть ветра ниже в 1.5-2 раза). Если метеoстанция нахoдится в гoрoде или в лесу, тo скoрoсть ветра занижена на 2-4 м/с пo сравнению с oткрытым местoм. Скoрoсть ветра над акватoриями крупных рек и oзёр, а также на вершинах хoлмoв на 2-5 м/с выше, чем в oбычных услoвиях.
Атмoсфернoе давление в разных тoчках местнoсти мoжет значительнo oтличаться oт давления на метеoстанции, в зависимoсти oт услoвий рельефа (при пoдъёме на 10 м давление пoнижается примернo на 1 мм рт.ст.).